Wind_Speed
43 43 43 42 40 37 35 33 31 29 27 27 29 31 32 34 34 36 37 39 40 41 42 43 44 45 46 48 49 52 53 55 57 57 58 59 60 61 62 62 62 62 62 62 62 62 62 63 64 64 64 64 64 63 61 60 59 59 60 61 62 62 60 57 54 51 48 44 40 36 33 30 29 26 23 24 23 26 28 24 24 23 28 34 30 29 34 34
43 43 43 43 42 40 37 35 32 30 27 26 27 28 30 31 32 33 34 36 38 39 41 42 44 45 46 46 47 49 51 53 54 56 58 59 61 61 62 63 63 64 64 63 63 63 63 63 64 65 65 65 65 64 64 62 62 62 63 64 65 63 61 57 54 52 49 46 42 37 34 32 30 29 26 27 28 29 30 26 29 28 32 37 34 30 31 31
43 43 44 44 43 42 39 36 33 30 28 26 25 26 27 29 29 30 31 33 35 36 38 40 42 44 46 46 46 48 49 50 52 53 55 58 59 61 62 63 64 65 65 65 65 64 63 64 64 65 66 66 66 66 66 65 64 64 65 67 66 62 61 58 56 54 51 47 43 39 36 34 32 31 28 28 31 34 33 29 33 32 35 40 39 32 25 25
43 44 44 44 44 43 40 37 34 31 28 25 24 24 25 26 27 28 29 29 31 33 35 37 39 42 44 45 45 47 48 49 50 51 53 55 56 58 60 62 64 65 66 66 66 66 65 65 65 65 66 66 66 67 67 67 67 66 68 68 64 61 62 61 58 56 52 49 46 41 37 37 34 30 30 31 32 36 35 31 34 35 38 40 42 35 27 25
44 44 44 44 43 43 41 38 34 31 28 26 24 23 24 24 25 26 27 28 29 31 33 35 37 39 42 43 44 45 46 47 48 49 50 52 54 55 57 59 61 63 65 66 67 67 67 67 67 67 67 67 67 68 68 67 67 68 69 67 63 63 63 62 60 57 54 52 49 45 40 39 35 30 28 30 33 38 37 32 33 38 40 39 39 34 28 27
45 45 45 44 43 42 41 38 34 31 28 26 24 24 23 24 25 26 27 28 29 30 31 33 35 37 39 41 43 43 44 44 46 46 45 47 50 52 54 56 58 60 62 64 66 68 68 68 69 68 68 68 67 68 67 66 68 68 68 67 65 65 64 63 61 58 57 55 52 50 45 40 38 36 32 28 29 31 32 30 28 30 33 35 34 29 25 28
46 46 45 45 44 42 40 38 34 31 28 26 25 25 24 25 25 26 27 28 29 30 31 32 34 36 37 39 41 42 41 41 43 44 41 41 44 47 50 53 55 57 58 60 63 65 67 69 70 70 70 70 69 68 66 66 67 68 68 67 66 65 65 65 63 59 59 59 54 52 49 44 43 41 37 33 28 23 27 28 25 26 27 28 28 26 27 30
46 46 46 45 44 42 40 38 35 31 29 27 26 26 26 26 27 27 28 28 29 30 30 31 33 35 35 36 37 38 38 38 39 41 40 38 39 42 45 47 49 52 54 56 58 61 63 66 68 70 71 71 70 69 68 67 67 69 68 66 65 66 66 66 64 61 61 61 57 54 53 49 48 47 41 38 35 28 28 30 27 27 27 26 26 28 31 32
46 46 46 46 44 42 39 36 34 32 30 28 27 27 28 29 29 30 30 30 29 28 27 27 28 30 30 31 32 32 34 36 36 37 38 36 36 36 38 42 44 47 49 51 54 56 59 61 63 66 69 71 72 71 70 69 69 68 67 66 66 67 67 67 66 64 63 62 58 54 56 54 51 53 52 45 38 33 28 31 29 27 26 26 28 32 33 34
46 46 46 46 44 42 38 35 34 32 31 30 30 30 31 32 33 33 33 32 31 29 27 25 25 26 26 27 28 29 33 37 36 35 35 35 34 34 36 39 40 42 44 46 48 51 53 56 58 62 66 69 72 73 72 72 71 69 67 67 67 67 67 67 67 65 64 63 60 57 59 59 55 54 55 50 44 37 30 33 35 30 29 29 31 35 36 35
46 46 46 46 44 41 38 35 33 32 32 32 32 33 34 35 35 35 34 33 32 31 29 28 27 27 27 27 28 31 35 37 35 34 34 35 36 36 39 41 41 40 40 42 44 45 48 50 53 57 61 65 68 70 72 72 72 71 69 69 68 68 68 68 68 66 64 65 63 61 62 62 57 54 55 52 49 45 35 35 38 33 33 36 37 39 40 40
46 47 47 46 44 41 37 34 33 32 32 33 34 34 35 36 35 35 34 33 33 33 32 32 30 30 29 29 30 33 34 35 35 35 36 37 38 39 41 44 43 42 41 41 41 42 44 47 50 53 56 60 62 65 68 70 72 72 71 72 71 70 70 70 69 66 65 66 65 63 63 64 61 57 58 55 53 51 41 37 39 38 38 41 43 42 42 43
46 47 47 46 44 41 37 33 32 32 32 34 34 35 36 36 35 34 33 33 34 34 34 33 32 31 30 30 33 35 36 36 37 37 37 38 39 39 42 44 44 44 44 43 43 43 43 44 46 49 52 55 58 60 63 66 70 72 73 73 73 73 73 71 69 67 65 67 66 64 66 67 65 61 59 57 56 54 47 42 42 42 44 43 43 44 44 45
47 47 47 47 45 41 36 33 32 32 32 34 35 36 36 36 35 34 32 33 34 35 34 33 32 32 32 34 37 38 39 40 40 40 39 39 39 38 41 43 44 45 45 45 45 45 45 45 45 45 46 49 52 55 57 60 65 68 71 73 74 75 75 72 69 68 67 68 67 64 66 68 66 61 57 57 56 52 46 44 45 45 47 47 44 45 48 48
47 47 48 47 45 41 36 33 31 31 32 34 35 36 36 35 34 33 32 34 35 34 34 33 34 35 36 38 41 42 43 44 44 43 41 39 37 36 38 41 43 44 45 46 46 47 47 47 46 44 43 44 47 50 52 55 59 63 67 72 75 76 76 72 69 69 68 68 66 64 66 68 65 60 57 58 57 50 43 42 46 48 51 54 52 52 53 52
47 47 48 47 46 42 37 34 31 31 33 34 36 36 35 34 33 32 32 34 35 33 33 34 36 38 40 42 44 45 46 46 45 43 41 38 36 35 35 38 42 44 44 45 46 47 48 48 47 45 43 44 45 47 49 52 56 59 63 68 72 75 75 73 70 69 69 67 65 64 67 68 63 59 59 60 58 54 46 43 48 49 52 57 56 55 56 56
47 47 48 48 46 42 38 35 32 32 33 34 35 35 34 33 33 31 31 34 34 33 34 35 38 41 42 44 46 47 47 46 44 42 40 38 37 36 35 37 40 42 43 44 46 47 49 49 48 47 45 45 45 47 50 52 55 57 60 65 69 71 73 73 71 68 67 67 65 65 68 67 62 60 62 61 59 58 51 47 49 48 48 53 54 54 57 58
47 48 48 48 46 43 39 36 33 32 33 34 35 35 33 31 31 31 31 32 32 32 34 36 39 42 44 45 46 47 47 46 43 40 39 39 38 38 38 38 39 41 42 43 46 47 49 49 49 49 47 46 46 47 49 50 52 55 58 62 66 68 70 71 71 67 64 65 65 66 68 67 63 62 63 61 59 59 56 53 52 49 47 50 53 55 58 57
47 48 49 49 47 44 40 37 34 33 34 34 34 34 33 31 31 31 30 30 29 31 35 38 41 42 43 45 45 45 43 43 41 39 39 40 40 41 41 41 41 40 42 44 45 47 49 50 51 51 49 47 46 46 45 43 45 50 53 56 59 63 65 67 68 66 62 59 62 67 70 68 66 64 63 61 59 58 57 58 58 52 50 54 57 59 59 57
47 48 49 50 48 45 41 39 36 34 34 34 33 32 31 31 31 30 28 28 29 30 35 41 41 39 40 42 43 42 40 39 39 38 39 40 41 42 42 43 41 39 40 42 44 46 49 51 53 51 47 45 44 44 42 40 41 45 47 50 54 57 61 64 65 63 61 57 56 65 71 69 66 65 62 59 59 59 58 59 61 58 55 59 61 61 61 60
47 48 50 50 48 45 43 40 36 35 35 34 31 30 30 30 30 28 25 27 32 33 35 38 38 37 37 38 39 39 38 38 37 38 39 40 40 40 41 40 37 35 36 39 42 46 49 52 52 49 45 44 43 42 41 40 40 42 45 47 50 53 57 60 61 60 60 58 56 60 69 70 65 64 62 58 58 60 59 57 59 59 57 59 59 59 59 59
47 48 50 50 49 46 43 41 37 36 35 34 31 29 30 31 29 27 25 27 33 34 34 34 35 35 36 37 37 37 37 35 35 35 37 38 37 36 34 33 31 30 32 37 41 44 49 51 50 47 45 44 43 42 40 39 39 40 44 46 49 51 53 56 57 57 57 57 60 60 66 69 63 61 63 60 58 58 57 57 58 57 55 55 56 57 58 58
47 48 50 50 49 47 44 41 38 36 35 33 30 29 30 29 27 27 29 30 31 32 32 32 32 33 35 36 34 33 33 32 31 31 32 33 32 29 25 24 26 27 29 34 39 43 46 48 46 45 46 45 44 43 41 40 39 40 42 45 48 49 51 53 54 54 53 54 61 62 62 63 55 54 59 59 60 59 56 56 59 56 53 52 52 53 56 56
47 48 50 50 50 48 45 41 39 36 34 32 30 29 29 28 27 28 31 31 29 30 31 31 33 35 35 33 31 30 29 27 27 27 28 28 25 22 19 19 22 23 26 30 35 41 44 43 43 44 45 46 46 45 43 42 41 41 41 44 46 47 49 51 52 50 44 43 53 58 57 56 47 46 57 60 62 64 60 57 57 55 51 49 49 50 53 53
47 48 50 50 49 49 46 42 39 37 34 31 29 29 29 28 28 30 32 30 28 29 30 31 35 36 36 33 30 29 27 24 24 22 24 24 20 16 16 18 18 18 22 25 31 38 41 40 42 45 45 45 46 46 45 44 43 42 42 42 43 46 47 48 48 46 38 34 41 48 53 56 49 45 56 63 63 64 63 61 58 53 50 49 49 51 53 53
47 48 50 50 49 49 47 43 39 37 34 31 29 30 29 28 29 32 32 29 28 29 31 34 37 37 36 34 31 30 26 22 21 19 20 19 15 13 15 16 15 14 17 21 26 33 38 38 40 44 45 45 45 45 45 44 44 44 42 40 41 43 46 48 46 44 42 37 34 37 45 53 52 50 54 58 61 62 61 62 62 55 51 51 52 53 55 54
47 48 50 50 49 49 47 44 40 37 34 31 30 30 30 29 31 32 31 30 29 30 34 37 37 37 36 35 35 31 22 17 17 16 17 15 12 12 13 14 13 13 14 18 22 26 33 37 38 40 42 42 40 41 43 43 44 45 41 38 39 41 45 47 46 45 44 39 35 35 37 44 49 52 54 51 55 60 57 59 63 58 53 54 55 54 55 55
47 48 50 49 49 48 47 44 40 37 34 31 31 31 30 31 31 32 31 30 30 31 35 39 38 37 36 35 34 26 17 16 16 14 13 12 11 11 12 12 13 14 14 18 20 19 24 31 36 38 39 39 37 38 39 39 42 44 41 38 37 39 43 44 44 45 43 40 42 41 35 40 45 47 49 47 51 58 57 58 63 58 54 56 56 56 56 54
47 48 50 49 49 48 47 44 40 37 33 30 30 31 31 31 31 32 31 30 30 30 35 39 39 38 35 31 26 18 15 17 15 12 12 13 12 11 11 12 14 15 17 20 19 17 21 25 31 37 40 39 38 38 38 36 38 41 40 40 38 37 41 43 42 45 45 42 45 44 37 37 42 43 44 42 47 56 59 61 60 54 53 56 56 56 56 54
47 48 50 50 49 48 46 44 40 37 33 30 30 31 31 31 31 31 31 31 30 30 35 39 39 38 33 28 23 16 14 14 12 12 13 14 14 13 13 14 15 16 19 21 19 18 20 22 28 35 40 42 40 40 38 34 33 37 38 39 40 39 41 44 43 47 49 46 45 45 41 36 38 44 47 43 47 57 61 59 53 48 50 54 56 56 55 52
46 47 49 50 49 48 47 44 42 39 35 31 30 31 31 31 31 30 31 32 30 30 36 38 38 36 30 25 22 18 13 10 8 9 10 11 13 13 13 15 17 17 19 21 20 19 20 22 26 30 35 40 41 41 39 34 31 33 35 37 38 39 42 43 46 50 51 48 47 46 43 41 39 45 49 49 53 58 56 53 49 45 48 53 55 56 53 50
46 47 48 49 49 49 47 46 43 39 35 32 31 31 31 30 30 30 31 32 31 30 34 37 35 31 27 23 20 18 15 10 6 7 10 10 12 12 12 13 15 16 18 19 21 23 23 23 25 26 30 33 39 44 43 37 34 32 35 37 37 37 38 42 49 53 50 46 48 46 43 43 42 44 47 50 54 55 51 49 47 44 47 52 55 54 51 47
46 47 48 49 49 49 48 46 43 38 35 32 31 31 31 30 31 31 31 32 32 29 32 37 34 27 24 22 19 18 17 13 9 9 11 11 11 10 10 12 14 16 16 16 20 25 25 25 25 27 29 29 34 41 45 41 38 38 39 39 39 39 37 40 47 53 51 47 49 47 43 42 41 40 42 42 44 48 47 48 46 43 45 49 53 51 46 44
45 46 48 48 49 49 48 47 43 38 35 32 31 31 31 30 30 31 31 32 32 30 31 36 33 25 20 19 17 17 16 14 13 11 11 12 13 12 12 13 15 16 15 15 17 22 26 27 27 28 29 28 29 33 40 43 42 43 43 41 42 42 38 39 42 47 50 49 49 46 45 45 38 34 37 37 36 38 37 38 39 39 39 40 46 47 43 43
45 45 47 48 48 48 47 47 44 38 34 31 30 31 32 31 30 30 30 30 29 28 30 33 31 23 18 17 17 15 14 13 14 14 13 13 14 13 13 14 15 15 15 15 15 18 24 26 26 28 29 30 30 29 32 39 43 44 43 43 44 44 40 39 41 43 46 49 51 46 45 44 38 35 35 32 32 32 27 25 29 34 35 33 38 43 43 43
44 44 46 47 47 47 46 46 45 40 35 31 30 32 33 31 30 30 31 31 29 27 28 30 28 23 19 17 17 16 15 15 17 18 17 18 17 16 15 14 15 15 14 15 14 16 21 22 24 28 31 32 34 32 29 34 41 42 41 42 44 44 40 36 41 45 43 46 52 48 42 38 37 38 32 24 30 34 28 25 26 31 35 35 37 41 42 42
45 44 44 45 46 46 45 46 45 42 37 32 30 31 32 31 29 30 31 31 30 28 26 26 27 24 20 19 19 20 19 18 19 21 22 23 22 20 18 15 15 14 12 13 13 13 17 19 21 26 32 33 34 35 33 34 38 39 40 41 41 44 40 33 40 47 42 39 44 44 39 33 34 37 29 25 34 37 34 32 30 30 34 37 40 41 41 41
44 43 44 45 45 45 45 45 46 44 39 33 29 28 29 30 28 28 29 30 30 28 24 24 27 24 22 21 19 20 21 20 21 22 22 23 23 22 18 14 14 13 11 11 11 11 13 14 16 22 28 33 35 37 37 39 40 40 40 40 43 44 40 35 39 45 40 32 34 38 36 30 31 35 30 28 36 38 37 36 33 34 36 38 41 41 41 43
44 43 43 44 44 43 44 45 46 45 41 34 30 28 28 30 28 27 28 28 29 28 23 23 26 24 22 23 21 20 20 20 22 22 21 22 20 18 17 14 13 11 10 9 7 9 11 10 11 17 24 30 36 40 41 41 42 42 39 40 47 46 40 39 40 43 39 29 29 35 33 29 29 32 28 26 32 37 38 37 35 37 38 38 40 42 42 43
44 43 42 43 43 43 43 44 45 44 41 36 31 28 27 29 28 26 27 27 28 28 25 24 26 25 22 22 23 22 22 22 23 22 21 20 18 15 15 15 12 10 9 8 7 8 9 8 8 13 20 27 34 40 43 42 43 44 39 41 50 48 40 39 39 42 41 31 26 29 31 31 30 31 27 24 28 35 39 38 37 36 35 37 39 40 41 41
44 42 42 43 43 43 43 43 43 43 40 36 33 30 28 29 29 26 24 26 27 28 26 26 28 28 25 24 24 25 24 24 23 22 20 19 17 14 13 14 11 8 7 5 5 6 6 7 9 12 17 22 28 35 41 43 42 42 40 42 50 47 38 36 37 41 44 35 22 20 26 30 29 28 25 23 29 36 38 37 36 34 34 37 37 34 34 36
44 41 41 43 43 43 43 42 42 42 40 38 35 33 30 29 31 28 24 24 26 28 26 26 28 30 28 26 26 25 24 25 24 21 19 17 15 12 12 12 10 7 6 4 5 5 4 5 7 10 14 18 23 31 39 42 40 39 39 43 49 44 35 33 36 39 42 37 22 17 24 28 25 25 22 23 33 38 36 35 35 34 35 39 37 31 28 28
43 41 40 42 42 42 42 42 42 42 41 39 35 33 31 29 30 29 25 23 24 27 27 25 27 31 30 27 25 24 23 23 23 20 17 14 12 10 10 10 9 8 6 5 5 5 7 6 3 6 11 15 20 28 37 40 40 40 41 46 50 42 33 31 34 36 39 41 29 20 28 28 23 24 22 23 33 38 34 32 33 35 38 42 40 33 30 27
43 41 40 41 41 41 42 42 42 41 40 36 32 30 28 28 28 28 26 24 24 26 27 26 26 29 31 29 25 22 22 21 21 18 15 12 10 9 9 9 9 8 7 7 7 8 11 9 3 6 10 16 21 29 37 40 40 40 43 48 48 40 34 31 34 33 33 42 39 29 31 29 21 22 23 22 31 37 35 32 32 36 41 44 42 37 35 32
42 41 41 40 39 40 41 41 40 40 38 35 32 28 25 25 26 27 25 23 23 24 25 25 24 25 27 28 25 19 17 17 16 16 14 11 10 11 10 10 12 12 9 9 8 8 9 5 2 6 11 18 23 29 35 39 42 44 46 49 46 41 36 32 34 31 27 36 40 36 35 30 21 20 21 23 31 34 35 36 37 39 42 42 41 38 36 34
41 41 41 40 40 39 39 39 39 39 38 36 33 28 25 24 24 25 25 24 22 22 23 23 23 24 24 23 22 17 12 12 12 13 12 10 11 12 10 11 13 13 11 10 9 9 6 1 4 9 13 19 22 26 31 37 42 43 45 48 46 41 36 31 30 28 24 32 38 35 36 33 25 21 22 26 31 32 33 35 37 38 39 39 38 36 34 32
40 42 41 41 41 40 39 39 39 39 38 37 34 29 25 23 23 24 25 26 24 23 23 23 23 25 23 19 18 15 11 11 12 12 11 10 11 11 11 12 12 12 15 15 13 9 3 2 5 12 18 21 23 27 32 37 38 38 42 49 48 41 35 28 27 25 21 26 33 33 36 34 27 24 26 29 30 29 30 33 32 32 34 35 36 34 32 31
39 42 41 40 40 39 38 38 38 38 38 36 34 30 26 24 25 26 25 25 24 22 20 22 24 25 21 19 17 13 10 11 12 12 12 11 11 10 10 12 12 14 18 17 13 8 5 6 9 17 22 23 24 28 33 36 36 38 43 48 48 41 33 27 27 25 23 25 30 33 35 32 26 26 30 32 33 33 32 32 29 29 32 34 33 32 32 31
39 41 41 40 39 39 38 37 36 37 37 35 35 33 29 25 24 26 26 24 22 20 18 20 24 24 22 22 17 11 9 10 11 12 12 11 11 10 9 12 14 16 17 14 11 9 7 9 16 23 22 21 20 23 27 32 37 42 46 47 44 38 32 27 24 21 21 23 30 32 32 27 25 30 33 34 37 39 38 34 30 30 33 34 33 33 32 31
38 39 40 39 38 38 38 37 36 35 35 35 36 34 31 26 21 22 26 25 21 19 18 20 23 23 22 22 16 10 9 10 10 11 11 11 12 11 10 12 14 16 16 12 10 10 9 16 25 26 21 18 18 17 20 28 37 42 42 41 37 33 31 29 24 21 20 23 27 27 27 27 28 33 35 33 34 36 37 36 32 31 31 32 33 33 31 30
37 38 39 38 36 36 36 36 36 35 34 34 35 34 31 27 21 18 22 24 23 21 19 19 20 18 17 17 14 11 10 10 9 8 9 12 13 12 12 14 14 16 15 11 9 10 13 22 31 28 20 17 15 15 17 23 32 36 36 36 33 28 28 27 27 26 21 20 23 22 25 32 34 33 33 31 29 30 32 33 33 31 30 29 30 30 30 30
37 37 38 38 35 33 34 35 35 35 35 34 34 34 31 28 23 18 18 21 21 21 20 18 15 15 14 13 11 10 9 10 9 7 7 11 13 13 13 14 15 15 13 10 11 14 18 26 28 23 18 16 14 14 16 20 30 38 36 33 29 25 22 19 22 25 18 16 23 22 25 36 38 35 33 30 28 28 29 31 34 34 32 29 27 27 28 28
Wind_Direction
358 355 351 345 340 334 328 322 316 310 301 291 284 278 274 271 267 264 262 261 259 259 258 256 255 252 250 249 249 248 248 247 246 246 245 244 244 243 243 242 241 241 240 240 239 238 238 238 239 239 239 239 238 238 238 238 238 239 239 241 242 242 242 242 243 244 245 244 241 234 227 222 213 208 216 228 235 247 249 220 209 235 250 255 250 245 252 252
358 355 352 347 342 336 331 325 319 314 306 298 289 281 277 274 271 267 265 263 261 260 259 258 258 256 254 252 250 249 248 248 247 246 246 245 244 243 242 242 241 241 240 240 240 239 238 238 238 239 239 239 238 238 237 237 237 238 239 241 242 241 242 243 244 245 245 244 242 237 229 222 216 213 215 222 225 232 244 226 204 220 235 240 243 242 248 247
357 355 352 348 343 338 333 328 322 317 310 303 294 286 281 277 274 271 268 265 264 263 261 260 259 258 257 255 253 251 250 249 248 247 247 246 245 244 243 242 242 241 240 240 239 239 238 238 238 238 239 238 238 238 237 237 237 238 239 241 241 241 243 243 244 244 244 244 241 237 231 224 216 213 217 227 233 229 233 223 199 213 235 236 239 241 241 241
356 355 353 350 345 340 334 330 325 319 313 306 298 291 285 281 278 275 272 269 266 264 263 262 261 260 259 257 256 255 253 251 250 249 249 248 247 246 245 244 243 242 241 240 239 239 238 238 238 238 238 238 238 238 238 237 237 238 239 241 241 241 242 242 243 244 244 243 240 235 228 227 221 214 221 227 236 241 238 221 202 219 245 245 243 241 235 241
355 355 353 351 347 341 335 331 327 321 315 308 302 295 290 285 281 278 275 272 269 266 264 263 262 261 260 258 257 256 255 254 252 251 251 250 249 248 247 245 244 243 242 241 240 239 238 238 238 238 238 237 237 238 237 237 238 238 239 240 241 242 242 242 243 243 243 243 242 236 227 228 224 206 216 232 236 242 241 233 225 233 248 250 245 241 238 247
355 354 354 352 350 344 337 332 329 324 318 311 305 300 296 291 287 283 280 277 275 272 269 267 265 264 263 262 260 258 257 256 254 252 252 251 251 250 249 247 246 245 244 242 241 240 239 238 237 237 237 237 237 237 237 238 238 238 238 239 239 240 241 242 242 242 242 242 241 239 231 225 221 202 198 225 244 251 247 242 238 232 239 248 244 239 241 249
355 355 354 353 351 347 339 333 330 326 320 314 310 307 304 300 297 292 289 285 282 280 277 275 273 270 269 267 266 264 262 262 259 256 254 253 253 253 251 249 247 246 245 244 243 242 240 239 238 237 237 237 237 237 237 237 238 238 237 237 238 239 240 241 241 241 242 242 239 239 235 224 219 208 196 205 221 242 252 247 239 223 224 241 248 247 243 245
355 355 355 354 352 348 341 334 331 327 322 318 315 313 310 307 303 300 296 293 290 287 284 281 278 274 273 272 270 268 266 265 263 262 261 257 255 254 253 252 250 248 246 244 244 243 242 241 239 238 237 236 236 236 236 236 237 237 236 235 236 238 239 241 240 240 241 242 239 238 237 228 220 216 211 212 208 213 240 245 238 229 226 236 248 254 249 245
356 356 355 355 353 349 343 335 330 327 324 322 319 317 314 312 310 307 305 303 300 297 292 287 281 279 277 275 273 272 268 262 259 260 263 262 259 257 255 253 251 250 248 245 244 243 242 242 240 239 238 237 236 235 235 235 236 236 236 234 235 236 237 239 239 238 239 241 240 239 238 233 225 222 223 224 212 203 222 237 239 238 234 233 240 249 252 247
356 356 356 355 353 350 344 336 330 327 325 324 323 321 319 318 316 314 312 311 309 305 301 295 288 285 281 278 277 274 269 266 263 261 261 262 262 261 259 255 251 249 248 247 245 243 242 241 241 239 238 237 236 235 234 234 234 234 235 234 234 235 236 237 238 237 237 238 238 238 240 235 229 227 226 225 217 207 208 227 241 242 235 233 238 245 250 248
356 356 356 356 354 351 345 338 331 327 325 325 324 323 322 319 317 316 314 313 311 308 304 300 296 292 288 286 282 275 273 275 274 269 265 261 258 258 258 256 253 250 249 248 246 244 242 241 241 240 239 237 236 236 235 235 234 233 233 233 233 233 234 235 236 236 236 237 236 236 240 239 233 228 227 224 221 221 215 221 235 237 234 236 241 244 245 246
357 357 357 356 354 351 345 338 331 328 326 325 324 323 320 318 316 315 313 312 310 307 305 303 301 299 296 294 288 283 284 284 281 276 271 266 260 258 258 257 255 254 252 250 248 246 244 242 241 240 239 238 237 236 236 235 234 233 232 232 232 231 232 233 234 234 235 237 236 235 237 238 236 231 228 225 222 224 221 218 227 229 229 236 242 244 243 242
357 357 357 356 354 351 346 339 332 328 326 324 323 321 319 317 315 313 312 311 308 306 306 305 303 302 301 300 295 294 293 290 288 285 279 274 268 262 259 258 257 255 253 251 249 247 245 243 242 241 240 239 238 236 235 235 234 233 232 232 232 232 231 232 233 233 233 235 236 235 235 235 236 235 231 228 224 221 219 219 225 227 228 235 242 245 244 240
356 356 357 356 355 351 346 340 333 329 326 324 322 321 318 316 314 312 311 309 306 306 305 304 303 303 303 302 301 299 298 296 294 292 288 282 275 267 261 258 256 253 252 250 249 248 246 244 243 241 241 241 240 239 236 235 234 233 232 232 231 232 232 231 232 233 232 233 234 234 236 235 235 234 232 232 229 223 218 220 226 229 229 233 239 244 247 246
356 356 356 356 355 352 347 340 334 329 326 324 322 321 318 316 313 311 310 307 305 305 304 302 302 302 303 304 303 302 299 298 297 295 292 287 280 272 264 258 254 251 250 248 247 247 246 245 243 241 240 239 239 239 237 235 234 233 233 232 231 231 231 232 233 234 233 233 233 232 234 236 233 232 232 233 232 225 216 217 226 231 232 234 237 241 245 247
356 356 356 356 355 352 347 341 336 330 326 324 323 321 319 315 312 310 310 307 305 304 300 300 302 303 304 304 303 301 299 297 295 294 292 288 282 277 269 262 255 250 247 247 245 244 244 243 243 241 239 236 236 236 235 233 232 231 231 232 232 232 231 232 233 234 234 234 233 232 234 236 234 231 231 231 228 223 216 215 224 231 234 235 237 241 242 243
355 355 355 355 354 352 347 342 337 331 327 325 324 322 319 315 312 310 310 306 303 301 299 301 304 304 303 303 301 298 296 293 292 291 288 285 282 277 273 268 261 252 245 243 242 240 240 240 240 239 237 235 234 234 233 232 231 230 231 230 230 231 232 232 232 232 234 235 234 234 235 236 235 235 235 233 228 223 217 214 219 225 229 234 238 242 243 245
355 355 355 355 354 351 348 343 338 332 329 326 325 323 320 316 312 312 310 305 302 301 300 302 304 304 303 301 298 295 293 290 287 285 283 281 279 278 276 275 270 258 245 239 239 237 237 237 237 237 234 233 232 233 235 235 234 233 233 232 230 230 230 231 231 230 231 234 235 236 236 235 235 236 238 237 234 229 222 214 215 220 225 233 238 241 245 247
355 355 354 354 354 351 348 344 340 334 330 328 325 324 322 318 315 315 311 304 299 298 300 301 302 304 303 300 297 294 291 288 285 282 280 278 277 278 278 278 277 264 247 238 236 236 235 234 233 233 233 233 234 235 239 240 238 236 234 234 232 230 229 230 230 229 228 230 234 237 235 234 234 235 237 237 236 234 229 220 215 217 224 233 239 243 248 251
355 354 354 354 354 351 348 345 341 335 333 330 327 323 321 319 317 316 311 302 299 299 301 303 303 304 303 300 297 293 290 288 287 284 282 279 278 280 279 278 277 265 247 237 235 235 234 232 230 230 231 233 235 237 239 239 237 235 234 233 232 231 230 229 229 228 225 225 230 236 236 234 235 235 235 236 236 235 234 229 223 220 223 233 241 246 249 252
355 354 353 354 353 351 348 345 341 337 334 333 329 325 321 320 319 318 316 308 306 308 307 307 308 308 305 300 296 293 292 292 291 290 286 283 281 281 280 278 272 261 246 235 233 233 233 231 228 227 227 229 231 234 235 235 234 234 233 232 231 230 230 229 228 227 226 223 225 232 235 234 235 237 235 234 236 236 235 236 235 231 228 233 241 245 248 250
355 354 353 353 353 351 348 345 342 337 335 335 332 328 324 323 323 324 324 317 313 314 313 313 312 311 309 305 299 296 296 295 295 295 292 290 287 284 279 273 265 256 245 235 231 233 233 230 227 225 223 224 227 229 231 232 232 232 232 232 230 229 229 228 226 225 225 225 225 228 233 234 234 235 236 233 234 237 237 238 239 238 235 235 238 242 245 248
355 354 353 353 353 352 349 345 342 339 337 336 334 330 327 326 326 327 328 325 320 318 319 318 315 314 313 309 304 301 299 299 298 297 295 295 293 287 277 269 262 253 244 237 232 233 234 229 226 225 223 222 223 224 226 228 229 230 230 231 229 228 229 228 225 224 223 225 227 227 231 234 234 235 237 236 233 234 234 236 239 238 237 237 238 241 245 247
354 354 354 353 353 352 350 346 343 340 339 338 336 332 329 328 328 329 329 328 325 324 324 321 317 317 315 311 310 307 303 301 300 297 296 295 293 285 275 271 266 253 246 241 235 234 234 229 223 223 223 222 222 222 223 224 226 227 228 230 229 227 228 227 225 222 220 222 227 229 230 230 230 235 238 236 234 232 230 232 237 237 236 237 239 242 245 247
354 354 354 353 353 353 350 347 343 341 341 340 338 335 333 331 330 331 332 332 329 328 329 326 321 320 319 318 319 314 308 305 301 297 298 297 292 280 270 269 268 257 247 243 239 235 233 229 223 221 220 220 222 222 221 223 224 225 227 228 228 227 227 226 223 218 211 212 220 227 231 228 223 228 235 236 234 233 230 229 232 234 235 236 237 240 243 245
354 354 354 353 353 352 351 348 344 342 342 342 341 338 336 334 333 336 336 333 332 333 334 332 327 326 325 324 322 316 311 308 301 298 302 299 290 282 275 273 272 262 248 242 240 234 229 226 221 220 218 217 219 220 220 221 222 224 225 226 228 227 226 224 219 212 208 207 208 216 228 229 224 224 231 236 237 235 233 233 232 230 233 236 236 238 241 242
354 354 354 353 353 353 351 349 346 343 344 344 344 341 338 337 337 340 338 335 336 339 340 339 334 331 330 325 321 316 309 307 303 299 302 298 289 285 281 277 273 265 255 249 243 234 229 224 218 217 217 215 215 217 218 219 221 222 221 224 227 227 227 224 217 210 208 207 200 201 219 229 226 226 229 235 239 237 234 235 234 229 229 235 237 239 241 241
353 354 353 353 353 353 352 349 346 344 345 345 345 342 340 340 341 343 342 338 340 343 343 342 339 334 331 326 322 314 302 306 305 294 298 298 289 285 278 273 270 260 250 251 249 239 231 226 221 216 213 214 213 212 214 218 222 221 218 220 223 226 227 223 218 212 206 204 198 194 207 226 228 226 228 234 240 239 236 234 234 229 227 232 236 238 240 241
353 353 353 354 353 353 353 351 347 345 345 345 345 343 341 342 344 346 346 343 343 346 347 345 342 338 336 334 331 317 302 309 307 296 301 296 286 285 281 273 270 262 251 251 252 243 231 227 223 216 210 210 209 207 207 213 220 219 217 218 218 222 224 220 215 208 205 206 201 191 194 217 228 222 220 230 238 239 236 233 231 229 228 230 233 236 239 241
352 353 353 353 353 353 354 352 348 346 346 347 346 346 344 344 347 349 348 348 347 347 350 349 345 343 344 347 348 335 316 316 315 311 306 293 285 285 280 273 269 265 257 253 250 245 237 228 223 218 212 209 208 205 201 204 212 214 216 217 216 218 219 218 210 203 210 213 201 191 190 202 219 218 213 220 232 236 235 233 229 226 227 229 231 234 237 240
351 353 353 353 353 353 354 353 350 348 347 348 349 348 346 346 350 349 349 352 352 349 352 353 348 346 350 354 359 359 348 342 334 330 324 300 289 286 279 273 271 268 261 254 248 244 239 231 227 223 218 215 212 206 200 197 198 204 210 213 215 215 216 217 205 203 218 216 197 192 193 196 207 215 214 217 226 234 236 235 230 223 225 228 229 231 234 237
351 352 353 353 352 353 354 354 351 349 347 348 350 349 347 350 352 350 350 355 355 349 352 355 351 350 354 356 1 6 4 5 359 338 333 316 300 295 284 271 273 277 271 259 248 242 237 232 230 226 220 218 214 208 202 198 193 195 203 206 209 207 210 214 204 205 219 212 196 194 196 198 203 209 214 216 223 231 236 236 232 226 227 229 228 230 231 232
350 352 353 353 352 352 354 355 352 349 347 347 349 349 350 353 353 352 353 356 355 350 352 356 355 354 359 359 360 3 1 360 355 337 330 327 319 308 291 275 275 280 280 269 251 241 237 231 227 226 222 219 216 209 202 198 195 196 199 202 204 199 203 211 203 205 214 207 196 194 197 203 202 205 213 213 218 228 232 234 233 230 230 229 228 229 230 229
350 351 352 353 352 352 354 356 353 349 347 347 347 348 352 355 354 355 358 358 356 350 349 353 354 353 357 360 3 5 3 360 357 349 339 334 326 311 297 289 284 280 280 278 260 242 236 231 227 226 222 220 220 213 204 201 199 201 201 202 202 198 201 206 202 207 213 204 194 193 200 205 196 199 212 209 212 221 224 228 229 228 231 230 227 228 228 228
349 350 352 352 352 352 354 355 353 351 348 347 347 349 354 357 356 357 2 3 358 350 346 349 351 350 350 353 359 2 1 358 351 347 347 347 344 328 311 302 295 290 284 283 274 252 240 232 227 226 222 219 218 213 210 209 205 203 202 202 202 198 199 202 202 208 210 201 195 196 203 202 191 195 208 207 207 207 206 213 222 225 228 228 225 224 225 225
350 350 351 352 352 353 354 354 354 352 350 348 349 351 354 356 357 359 3 5 1 352 349 350 349 348 344 340 341 343 344 343 337 335 337 339 347 348 336 321 308 301 295 289 279 259 244 232 225 224 220 217 214 209 207 208 209 207 203 204 204 198 196 200 201 205 208 200 196 199 203 198 194 198 198 191 194 198 198 203 217 228 230 227 223 221 222 223
349 351 351 351 351 352 353 354 354 354 352 350 350 353 354 354 357 1 4 6 2 352 348 351 351 350 347 337 331 328 330 333 333 337 336 330 332 338 338 330 317 309 302 290 277 261 250 236 227 224 219 214 213 210 205 202 206 209 207 204 202 196 195 199 199 203 211 207 197 199 198 191 196 199 187 174 184 198 209 208 212 227 233 230 222 218 221 223
348 350 351 352 351 351 352 353 355 355 353 351 351 353 354 355 357 1 3 6 6 358 348 347 350 351 350 348 341 330 326 329 330 334 338 337 336 336 333 327 322 318 306 294 280 265 259 244 228 225 219 212 210 210 207 202 201 205 208 199 191 193 197 197 198 202 211 211 197 193 188 182 193 194 183 178 181 194 211 211 209 220 230 231 221 216 219 222
348 349 351 352 351 351 351 353 354 355 354 352 351 353 356 358 358 360 2 3 5 4 358 350 350 349 349 351 350 343 339 339 337 335 337 338 340 342 335 328 329 330 320 308 290 266 259 246 224 222 219 212 211 211 207 203 200 203 208 196 186 192 194 192 196 201 205 202 187 183 181 179 187 184 180 183 180 187 204 209 211 217 226 230 222 216 219 223
348 349 349 351 351 350 351 353 354 355 354 352 350 352 357 0 360 358 0 2 2 3 3 359 355 353 351 350 349 347 346 346 345 345 344 340 340 345 339 331 333 337 330 315 291 273 261 243 216 218 220 214 213 212 206 203 202 201 203 195 188 189 188 188 193 198 204 200 179 176 180 181 181 174 177 184 179 187 201 208 212 217 224 230 225 218 220 225
348 348 348 350 350 350 351 353 355 356 354 351 349 352 357 1 2 359 357 359 1 1 1 1 360 359 356 353 351 348 344 342 343 343 342 339 339 342 337 332 330 323 328 322 288 281 269 245 224 219 221 215 213 209 203 203 203 199 198 192 188 188 187 187 187 190 200 200 177 167 182 190 185 172 178 187 178 184 198 205 211 216 222 230 227 217 218 226
347 347 347 349 350 349 349 352 355 356 354 352 351 353 358 0 0 359 357 356 359 1 1 0 2 4 1 355 354 353 347 346 349 346 339 334 336 340 336 334 334 322 319 319 294 278 258 239 226 223 222 216 208 200 198 200 200 198 193 188 189 189 182 177 176 182 196 196 175 156 176 188 182 170 182 190 179 184 198 205 211 215 219 228 229 219 219 227
347 347 347 348 349 348 348 351 354 355 354 353 351 351 356 357 356 357 356 357 2 4 2 1 2 5 5 0 357 353 349 352 358 356 347 338 336 344 345 343 346 343 328 324 327 301 278 276 249 227 219 208 199 192 191 193 196 197 189 185 191 188 170 165 169 177 192 193 182 166 164 163 159 169 187 191 183 189 200 207 214 218 222 230 232 226 223 225
345 346 347 348 347 347 348 351 354 355 354 353 351 350 351 350 351 355 356 358 4 5 4 5 3 2 4 4 1 356 351 352 358 0 359 357 352 351 351 345 339 338 327 319 328 315 300 301 270 219 207 191 186 187 188 189 192 191 183 184 188 179 164 166 171 175 188 190 189 187 172 157 157 183 198 193 189 196 202 206 214 219 224 231 231 229 227 224
344 346 346 346 346 346 349 351 353 354 355 353 351 350 348 344 347 355 357 358 5 6 4 6 7 4 3 1 1 5 359 349 353 0 3 9 8 358 355 349 335 328 321 312 318 325 326 330 189 202 195 182 179 181 183 183 184 182 178 181 182 171 168 175 177 181 185 181 187 195 187 176 177 193 202 195 192 202 210 213 215 219 225 229 228 229 227 225
343 345 344 344 345 346 348 350 351 353 355 356 354 350 346 344 346 355 358 358 4 9 6 6 9 6 3 0 0 6 3 349 355 6 7 12 10 1 360 354 339 333 335 333 338 346 348 354 196 198 182 174 175 177 180 179 177 176 175 176 177 174 175 179 179 180 176 172 180 186 183 182 183 191 204 201 194 200 209 214 216 218 222 225 225 227 227 226
341 343 343 343 344 345 347 350 351 353 355 357 355 350 345 344 347 356 2 360 2 8 7 5 5 1 1 6 6 2 349 341 351 3 6 10 9 3 2 356 343 340 347 351 357 6 23 147 198 191 174 168 170 174 179 178 173 173 173 175 180 181 178 180 183 186 194 191 182 172 171 178 182 188 203 205 199 200 207 213 217 216 217 221 223 223 223 223
339 341 342 343 343 343 346 349 350 352 355 354 353 350 349 349 350 356 4 3 359 4 7 2 359 359 0 2 2 359 343 335 343 353 351 350 358 3 5 7 5 1 3 11 25 49 97 131 167 175 165 159 162 167 174 176 172 173 174 177 183 183 179 183 186 195 215 209 182 169 172 178 181 188 201 206 201 201 208 214 217 216 217 220 220 220 220 220
338 340 340 341 342 342 344 348 350 352 354 352 351 352 353 354 353 352 357 2 360 359 3 0 360 3 2 355 355 356 340 330 338 350 349 345 354 360 1 7 13 19 27 39 52 71 111 142 156 162 156 151 157 163 169 171 169 171 175 179 183 183 183 187 187 198 215 197 176 176 178 176 181 190 199 206 203 202 207 209 212 214 214 217 218 218 220 221
336 338 339 340 342 341 341 345 349 351 353 352 352 354 353 352 354 349 347 354 0 359 0 1 1 3 0 355 356 355 337 328 334 348 354 355 358 3 3 2 7 19 33 45 56 75 120 152 156 157 152 146 151 155 161 166 168 173 180 183 184 184 185 188 189 194 192 173 170 180 180 178 184 187 191 197 196 196 200 202 206 210 209 212 216 215 215 216
334 336 337 338 341 341 339 341 347 350 352 352 352 353 353 348 351 354 348 349 356 359 359 360 357 356 356 353 355 353 334 322 328 347 4 6 6 9 5 2 4 12 27 50 79 99 135 159 163 163 160 159 164 165 163 168 175 183 186 181 179 182 185 190 192 190 183 172 176 184 181 182 184 180 180 188 190 189 193 197 203 206 206 209 214 214 212 212
331 334 336 336 339 341 338 338 344 348 350 352 351 351 352 348 345 352 354 349 351 354 356 358 356 353 355 356 359 360 343 324 321 335 358 5 10 11 4 1 5 11 27 65 110 131 145 160 169 172 175 185 192 179 169 176 185 189 186 177 173 176 180 193 200 196 193 186 181 179 178 181 184 182 181 186 193 196 197 199 203 207 208 209 211 213 214 214
Height
5761 5757 5754 5750 5747 5743 5740 5737 5735 5733 5731 5730 5728 5727 5726 5726 5725 5725 5726 5726 5726 5726 5726 5726 5726 5727 5728 5729 5730 5731 5732 5734 5736 5738 5740 5742 5743 5745 5747 5750 5752 5754 5756 5759 5761 5764 5766 5768 5770 5772 5774 5778 5780 5784 5788 5789 5791 5791 5791 5792 5794 5798 5802 5808 5813 5816 5822 5826 5831 5837 5841 5843 5845 5846 5849 5852 5855 5854 5854 5858 5859 5857 5854 5852 5856 5857 5857 5858
5759 5756 5752 5748 5745 5741 5738 5735 5732 5729 5728 5726 5725 5724 5722 5722 5721 5721 5721 5721 5721 5721 5721 5721 5721 5722 5723 5724 5725 5726 5727 5728 5729 5732 5733 5734 5736 5738 5740 5742 5745 5746 5749 5752 5754 5757 5760 5762 5764 5765 5768 5771 5774 5778 5780 5783 5785 5784 5786 5787 5789 5795 5800 5806 5810 5814 5818 5822 5827 5833 5837 5840 5842 5844 5846 5848 5851 5851 5851 5855 5855 5852 5849 5849 5853 5855 5856 5857
5758 5754 5751 5747 5743 5739 5735 5732 5729 5726 5724 5723 5722 5720 5719 5718 5718 5717 5717 5717 5717 5717 5716 5717 5716 5716 5717 5719 5720 5720 5721 5722 5724 5726 5725 5727 5729 5731 5733 5734 5737 5739 5742 5744 5747 5750 5753 5756 5757 5759 5761 5764 5768 5771 5773 5776 5778 5779 5781 5780 5785 5794 5798 5802 5806 5809 5814 5819 5823 5828 5833 5835 5837 5841 5843 5844 5846 5846 5848 5852 5853 5849 5845 5846 5850 5853 5855 5856
5756 5753 5749 5745 5741 5737 5733 5730 5727 5724 5722 5720 5718 5717 5716 5715 5715 5714 5713 5713 5713 5712 5712 5712 5712 5711 5712 5713 5714 5715 5716 5717 5719 5720 5720 5721 5722 5723 5725 5727 5729 5731 5734 5737 5740 5742 5745 5748 5750 5752 5755 5758 5762 5764 5766 5770 5773 5775 5774 5776 5784 5791 5793 5796 5801 5805 5810 5814 5818 5824 5829 5831 5834 5836 5838 5840 5841 5842 5845 5848 5851 5849 5843 5843 5848 5852 5854 5854
5755 5751 5747 5743 5739 5735 5731 5727 5724 5722 5719 5717 5716 5715 5714 5713 5712 5711 5710 5710 5709 5708 5708 5707 5707 5706 5706 5707 5708 5709 5710 5712 5714 5715 5714 5715 5715 5716 5717 5720 5722 5724 5726 5729 5732 5734 5738 5741 5743 5745 5748 5751 5754 5756 5759 5765 5768 5768 5769 5775 5783 5786 5787 5791 5796 5801 5806 5809 5813 5818 5824 5828 5830 5832 5834 5836 5837 5837 5841 5845 5847 5846 5842 5841 5845 5849 5851 5851
5752 5749 5745 5741 5737 5733 5729 5725 5722 5719 5717 5715 5713 5712 5711 5710 5709 5709 5708 5707 5706 5705 5704 5704 5703 5702 5702 5702 5703 5704 5705 5706 5708 5709 5709 5708 5709 5710 5712 5713 5715 5717 5719 5721 5723 5726 5729 5732 5735 5738 5741 5744 5747 5750 5755 5759 5760 5761 5765 5772 5777 5779 5782 5786 5791 5796 5800 5803 5807 5812 5819 5825 5826 5827 5829 5832 5834 5835 5838 5841 5843 5842 5840 5839 5841 5845 5847 5847
5750 5746 5743 5739 5735 5731 5727 5723 5720 5717 5715 5713 5711 5710 5709 5708 5707 5706 5705 5704 5703 5702 5701 5700 5699 5699 5698 5698 5698 5699 5701 5702 5701 5702 5703 5704 5705 5705 5706 5707 5708 5710 5712 5714 5716 5718 5721 5724 5727 5730 5733 5736 5740 5744 5749 5751 5751 5754 5760 5768 5772 5775 5777 5781 5786 5791 5793 5796 5802 5807 5812 5819 5821 5823 5824 5826 5830 5834 5835 5836 5838 5838 5838 5838 5838 5841 5843 5843
5748 5744 5740 5737 5733 5729 5725 5721 5717 5715 5713 5711 5709 5708 5706 5705 5704 5703 5702 5701 5700 5699 5698 5697 5695 5695 5695 5694 5694 5695 5696 5696 5695 5695 5697 5699 5701 5700 5699 5700 5701 5703 5705 5707 5709 5711 5713 5716 5720 5723 5725 5729 5733 5737 5741 5742 5743 5747 5756 5764 5768 5770 5773 5776 5781 5785 5786 5789 5797 5801 5804 5811 5817 5820 5821 5822 5826 5831 5833 5832 5834 5835 5835 5836 5836 5838 5840 5841
5746 5742 5738 5734 5731 5726 5723 5719 5715 5712 5710 5708 5707 5705 5703 5702 5700 5699 5697 5696 5696 5695 5694 5693 5691 5691 5691 5691 5691 5691 5690 5690 5691 5691 5692 5694 5695 5695 5694 5695 5696 5697 5698 5700 5702 5704 5706 5709 5712 5714 5716 5720 5724 5728 5732 5733 5736 5743 5752 5759 5762 5764 5767 5770 5773 5778 5780 5784 5791 5794 5796 5804 5812 5815 5816 5820 5824 5828 5830 5828 5829 5833 5833 5835 5835 5835 5836 5838
5744 5740 5736 5732 5728 5724 5720 5717 5713 5710 5708 5706 5704 5702 5700 5698 5696 5694 5692 5691 5690 5689 5689 5689 5688 5688 5688 5687 5687 5687 5684 5683 5687 5689 5689 5689 5690 5690 5689 5688 5690 5691 5692 5694 5696 5697 5700 5702 5703 5704 5707 5712 5715 5719 5722 5724 5731 5739 5746 5750 5754 5757 5760 5763 5765 5770 5775 5779 5785 5787 5789 5796 5805 5808 5809 5817 5823 5824 5826 5823 5823 5828 5831 5833 5833 5833 5834 5834
5742 5738 5734 5730 5726 5722 5718 5714 5711 5708 5705 5703 5701 5699 5696 5694 5692 5690 5688 5687 5686 5685 5685 5684 5684 5684 5684 5684 5683 5680 5678 5679 5682 5684 5685 5685 5685 5684 5682 5682 5684 5686 5687 5688 5689 5691 5693 5695 5695 5696 5700 5705 5708 5712 5715 5718 5726 5732 5737 5741 5745 5749 5752 5755 5758 5763 5769 5772 5778 5783 5785 5789 5796 5799 5803 5813 5820 5823 5823 5818 5818 5823 5826 5828 5829 5830 5831 5831
5740 5736 5732 5728 5724 5720 5716 5712 5709 5706 5703 5701 5699 5696 5694 5692 5689 5687 5685 5684 5682 5681 5680 5680 5679 5679 5679 5679 5676 5674 5675 5675 5675 5677 5678 5678 5679 5679 5678 5677 5678 5680 5681 5683 5684 5685 5687 5688 5689 5691 5694 5698 5701 5705 5707 5713 5719 5724 5729 5732 5736 5741 5743 5746 5750 5757 5763 5766 5773 5780 5779 5781 5786 5791 5798 5808 5815 5820 5821 5816 5814 5819 5821 5822 5824 5826 5827 5828
5738 5734 5730 5726 5722 5718 5714 5710 5707 5704 5701 5699 5697 5694 5691 5689 5687 5685 5683 5681 5678 5677 5676 5675 5674 5674 5674 5672 5670 5669 5670 5669 5669 5670 5670 5670 5671 5673 5672 5672 5673 5674 5675 5677 5678 5679 5681 5682 5683 5686 5688 5691 5695 5697 5701 5707 5712 5717 5722 5725 5730 5733 5735 5740 5745 5751 5757 5760 5768 5772 5769 5772 5780 5786 5794 5803 5808 5812 5817 5814 5811 5814 5817 5818 5820 5822 5823 5825
5736 5732 5728 5724 5720 5716 5712 5708 5705 5702 5699 5697 5694 5692 5689 5687 5684 5682 5680 5678 5675 5674 5672 5671 5670 5669 5669 5667 5665 5664 5663 5662 5662 5662 5662 5662 5663 5664 5665 5665 5666 5667 5668 5671 5672 5673 5674 5676 5678 5681 5684 5687 5690 5692 5697 5701 5705 5710 5714 5717 5722 5724 5728 5736 5741 5745 5750 5755 5762 5764 5761 5767 5776 5783 5790 5797 5801 5805 5811 5812 5809 5811 5814 5814 5816 5818 5819 5821
5734 5730 5726 5721 5717 5713 5710 5706 5703 5700 5697 5694 5692 5689 5687 5684 5682 5679 5677 5674 5672 5671 5669 5667 5666 5665 5664 5662 5659 5658 5656 5655 5655 5654 5654 5654 5655 5656 5656 5657 5658 5659 5662 5664 5666 5667 5668 5669 5672 5676 5679 5682 5684 5686 5690 5694 5698 5703 5706 5709 5715 5718 5725 5733 5736 5740 5745 5751 5756 5756 5756 5762 5770 5779 5786 5791 5795 5799 5804 5807 5806 5807 5810 5810 5812 5814 5815 5817
5732 5728 5723 5719 5715 5711 5708 5704 5701 5698 5695 5692 5689 5687 5684 5681 5679 5677 5675 5671 5669 5668 5665 5664 5662 5660 5658 5657 5654 5652 5650 5649 5649 5648 5648 5647 5647 5648 5648 5648 5650 5652 5655 5657 5659 5660 5661 5663 5666 5670 5673 5675 5677 5679 5683 5686 5690 5695 5698 5704 5710 5715 5721 5727 5731 5735 5741 5746 5748 5749 5752 5759 5767 5775 5780 5784 5789 5794 5799 5802 5802 5803 5806 5806 5807 5810 5811 5813
5730 5726 5721 5717 5713 5709 5705 5702 5699 5695 5692 5689 5686 5684 5681 5679 5676 5675 5672 5668 5666 5664 5662 5661 5658 5655 5654 5652 5649 5646 5644 5644 5644 5643 5641 5640 5640 5641 5641 5641 5642 5644 5648 5650 5651 5653 5654 5657 5660 5663 5667 5669 5671 5673 5675 5678 5683 5689 5693 5698 5705 5711 5716 5720 5724 5731 5735 5738 5740 5744 5748 5755 5764 5770 5773 5777 5783 5789 5795 5799 5798 5798 5801 5801 5803 5806 5807 5809
5728 5724 5719 5715 5710 5706 5703 5699 5696 5693 5690 5686 5683 5680 5678 5676 5673 5672 5670 5666 5663 5661 5659 5658 5655 5652 5650 5647 5644 5641 5639 5637 5638 5637 5635 5634 5634 5633 5633 5634 5635 5637 5641 5642 5643 5646 5648 5651 5654 5656 5659 5661 5665 5667 5669 5674 5682 5687 5690 5695 5700 5704 5708 5711 5717 5726 5730 5731 5735 5739 5743 5751 5759 5763 5765 5771 5778 5783 5789 5795 5795 5794 5796 5798 5800 5801 5803 5807
5727 5722 5717 5713 5708 5704 5700 5697 5694 5690 5687 5683 5680 5677 5675 5673 5670 5669 5667 5663 5661 5659 5656 5654 5652 5649 5645 5641 5638 5636 5634 5631 5630 5630 5628 5628 5627 5627 5626 5626 5627 5629 5632 5635 5637 5640 5642 5644 5645 5648 5652 5657 5662 5664 5668 5675 5681 5684 5687 5690 5694 5697 5699 5703 5710 5719 5725 5727 5729 5732 5738 5746 5752 5756 5760 5766 5772 5777 5782 5789 5791 5792 5793 5795 5797 5798 5800 5804
5725 5720 5715 5711 5706 5702 5697 5694 5691 5688 5684 5681 5677 5674 5671 5669 5667 5666 5664 5660 5658 5658 5654 5649 5647 5646 5642 5637 5632 5629 5628 5625 5624 5623 5621 5621 5621 5620 5619 5619 5620 5621 5624 5629 5632 5633 5633 5634 5636 5642 5650 5655 5659 5662 5666 5672 5675 5677 5681 5683 5687 5690 5693 5698 5704 5712 5719 5722 5724 5727 5733 5740 5744 5750 5756 5761 5765 5770 5774 5780 5785 5788 5790 5792 5794 5795 5797 5800
5723 5718 5713 5708 5704 5699 5695 5691 5688 5685 5681 5678 5675 5672 5669 5666 5664 5663 5662 5657 5654 5653 5651 5645 5642 5640 5637 5634 5628 5623 5621 5619 5618 5616 5614 5614 5615 5614 5613 5612 5613 5614 5618 5622 5623 5623 5623 5625 5631 5640 5648 5652 5655 5658 5662 5665 5668 5671 5674 5677 5680 5683 5687 5693 5699 5706 5713 5716 5719 5722 5726 5732 5738 5743 5750 5756 5759 5763 5769 5774 5777 5783 5788 5790 5791 5792 5794 5796
5721 5716 5711 5706 5702 5697 5692 5688 5685 5682 5678 5675 5672 5669 5666 5663 5660 5659 5658 5655 5650 5647 5645 5641 5638 5634 5630 5627 5623 5619 5616 5614 5613 5611 5608 5607 5608 5609 5607 5607 5608 5609 5612 5614 5614 5615 5615 5619 5629 5638 5644 5647 5650 5653 5656 5660 5663 5665 5668 5671 5674 5678 5683 5688 5694 5700 5707 5710 5714 5718 5720 5724 5732 5737 5742 5749 5753 5758 5764 5769 5771 5777 5783 5786 5788 5788 5789 5791
5719 5714 5709 5704 5699 5695 5690 5686 5683 5679 5675 5672 5669 5666 5663 5660 5658 5655 5654 5652 5648 5644 5640 5637 5633 5629 5625 5621 5618 5615 5612 5610 5608 5606 5604 5602 5602 5603 5603 5602 5603 5604 5606 5607 5609 5609 5610 5617 5628 5635 5638 5641 5644 5647 5651 5654 5657 5659 5663 5666 5669 5675 5679 5682 5689 5696 5701 5705 5709 5714 5716 5719 5726 5731 5734 5741 5748 5753 5759 5763 5765 5771 5777 5780 5784 5785 5785 5786
5717 5712 5707 5702 5697 5692 5688 5684 5680 5677 5673 5670 5667 5664 5661 5658 5656 5653 5650 5647 5644 5641 5638 5633 5629 5625 5621 5617 5614 5610 5608 5607 5605 5602 5601 5599 5599 5599 5599 5599 5599 5600 5602 5603 5604 5605 5607 5615 5624 5628 5632 5635 5639 5642 5645 5648 5651 5654 5658 5661 5665 5671 5674 5679 5686 5692 5697 5701 5705 5710 5712 5714 5720 5725 5727 5734 5742 5747 5753 5758 5759 5765 5772 5776 5780 5780 5780 5782
5715 5710 5705 5700 5695 5690 5686 5682 5678 5674 5671 5668 5665 5661 5658 5655 5653 5650 5647 5644 5641 5638 5635 5630 5625 5620 5614 5611 5609 5606 5604 5603 5601 5599 5598 5596 5596 5596 5596 5596 5596 5598 5599 5599 5600 5601 5605 5612 5618 5621 5625 5629 5633 5636 5640 5643 5646 5649 5653 5657 5662 5667 5671 5676 5683 5689 5691 5693 5699 5705 5706 5708 5715 5719 5722 5728 5734 5739 5746 5751 5754 5761 5767 5771 5774 5775 5776 5777
5713 5708 5703 5698 5693 5688 5684 5680 5676 5672 5669 5666 5663 5659 5656 5653 5650 5647 5643 5641 5638 5635 5632 5627 5621 5615 5610 5607 5605 5603 5601 5599 5597 5596 5595 5594 5594 5594 5594 5594 5594 5595 5596 5596 5596 5597 5601 5608 5612 5615 5618 5622 5626 5631 5635 5639 5642 5644 5649 5654 5659 5663 5667 5671 5679 5684 5684 5687 5694 5700 5700 5704 5710 5713 5716 5722 5727 5733 5740 5744 5749 5757 5762 5765 5769 5770 5771 5773
5711 5706 5701 5696 5691 5686 5681 5677 5674 5670 5666 5663 5660 5656 5653 5650 5647 5644 5640 5637 5635 5631 5627 5622 5616 5611 5607 5603 5600 5598 5597 5596 5595 5594 5593 5593 5593 5593 5592 5592 5593 5593 5594 5593 5593 5594 5599 5603 5605 5609 5613 5616 5620 5625 5631 5635 5637 5640 5646 5652 5655 5660 5663 5668 5675 5678 5680 5685 5689 5693 5697 5701 5704 5708 5713 5718 5721 5727 5734 5737 5742 5752 5759 5760 5763 5766 5767 5769
5709 5705 5700 5695 5690 5685 5679 5675 5671 5667 5664 5660 5657 5654 5651 5647 5644 5641 5637 5634 5631 5627 5623 5618 5613 5609 5605 5601 5596 5594 5594 5593 5592 5592 5592 5591 5591 5591 5591 5591 5591 5591 5592 5591 5592 5595 5598 5600 5602 5605 5608 5611 5615 5621 5627 5632 5633 5637 5644 5648 5652 5657 5659 5665 5672 5676 5680 5682 5680 5684 5692 5697 5699 5703 5710 5714 5715 5720 5727 5730 5735 5748 5755 5756 5758 5761 5763 5766
5707 5703 5698 5693 5688 5683 5678 5673 5669 5665 5662 5659 5656 5653 5649 5645 5642 5638 5635 5632 5628 5625 5621 5616 5611 5606 5602 5598 5593 5591 5591 5591 5590 5590 5590 5591 5591 5590 5589 5589 5589 5589 5590 5590 5591 5594 5595 5597 5600 5602 5603 5606 5611 5617 5623 5627 5630 5636 5642 5645 5649 5652 5655 5660 5666 5672 5676 5674 5673 5678 5685 5690 5695 5700 5705 5708 5709 5714 5720 5725 5733 5744 5749 5750 5753 5756 5758 5762
5706 5701 5696 5692 5687 5682 5677 5673 5669 5665 5662 5658 5655 5651 5647 5643 5640 5636 5634 5631 5626 5623 5619 5614 5609 5604 5600 5596 5592 5590 5589 5589 5588 5588 5588 5588 5589 5588 5588 5587 5587 5587 5588 5588 5590 5592 5593 5595 5596 5598 5599 5603 5608 5613 5618 5622 5627 5633 5638 5641 5645 5648 5651 5655 5660 5666 5668 5664 5668 5676 5680 5683 5688 5694 5700 5703 5705 5710 5716 5721 5731 5740 5743 5745 5749 5751 5755 5759
5704 5699 5695 5690 5685 5681 5676 5672 5668 5664 5660 5656 5653 5650 5646 5642 5638 5635 5632 5628 5624 5621 5617 5613 5607 5603 5599 5596 5593 5590 5589 5588 5587 5587 5586 5586 5586 5586 5585 5585 5585 5585 5585 5586 5588 5589 5590 5592 5594 5596 5599 5603 5606 5610 5614 5618 5622 5628 5632 5636 5641 5644 5647 5650 5654 5658 5656 5657 5666 5675 5678 5678 5679 5686 5695 5700 5703 5708 5712 5718 5728 5735 5738 5740 5744 5748 5752 5756
5702 5698 5693 5688 5684 5679 5674 5669 5665 5661 5657 5654 5651 5648 5645 5640 5636 5633 5630 5626 5623 5620 5617 5613 5608 5603 5599 5596 5593 5592 5590 5588 5587 5586 5586 5585 5584 5584 5584 5583 5584 5583 5583 5584 5585 5585 5587 5589 5591 5594 5598 5601 5603 5606 5610 5614 5618 5622 5626 5632 5636 5640 5644 5645 5648 5650 5649 5655 5666 5673 5676 5674 5673 5680 5689 5696 5701 5705 5710 5716 5724 5730 5733 5734 5739 5745 5750 5754
5701 5696 5692 5687 5682 5677 5673 5668 5663 5659 5656 5653 5650 5647 5643 5639 5635 5632 5628 5624 5621 5618 5615 5611 5607 5603 5600 5597 5594 5592 5591 5589 5588 5587 5586 5585 5584 5583 5582 5582 5582 5582 5581 5581 5581 5582 5584 5586 5588 5591 5594 5597 5600 5603 5607 5611 5615 5618 5623 5628 5631 5636 5639 5642 5646 5648 5649 5655 5665 5671 5671 5669 5671 5677 5684 5693 5699 5703 5708 5714 5720 5725 5727 5729 5735 5743 5748 5751
5699 5695 5690 5686 5681 5676 5671 5666 5662 5659 5655 5651 5648 5645 5642 5638 5635 5631 5627 5623 5619 5617 5613 5610 5607 5604 5601 5598 5596 5594 5592 5590 5588 5587 5586 5585 5583 5582 5582 5581 5581 5580 5579 5579 5579 5579 5581 5583 5586 5588 5592 5596 5599 5602 5606 5609 5612 5616 5620 5625 5628 5632 5636 5640 5645 5648 5649 5656 5664 5667 5664 5664 5671 5677 5683 5691 5697 5701 5706 5712 5717 5721 5723 5726 5732 5740 5744 5747
5698 5693 5689 5685 5680 5675 5669 5665 5662 5658 5654 5651 5647 5644 5640 5637 5634 5630 5627 5623 5620 5617 5614 5611 5608 5605 5602 5600 5597 5595 5593 5591 5589 5588 5586 5584 5582 5581 5580 5579 5578 5577 5577 5576 5576 5577 5578 5580 5584 5586 5589 5593 5596 5601 5606 5609 5611 5614 5618 5621 5624 5629 5634 5639 5643 5646 5651 5657 5661 5661 5661 5665 5672 5676 5681 5689 5695 5699 5704 5708 5713 5717 5719 5722 5728 5735 5739 5742
5698 5693 5688 5683 5679 5674 5669 5665 5661 5657 5653 5649 5646 5642 5638 5635 5633 5629 5625 5622 5619 5617 5615 5612 5609 5605 5602 5600 5597 5595 5593 5591 5589 5587 5585 5582 5581 5580 5578 5577 5576 5575 5575 5574 5574 5574 5575 5578 5581 5582 5585 5588 5592 5597 5602 5605 5609 5612 5615 5618 5623 5629 5633 5637 5641 5646 5650 5653 5656 5658 5661 5668 5673 5674 5679 5687 5693 5698 5701 5705 5710 5713 5715 5719 5725 5732 5735 5738
5696 5692 5688 5683 5678 5673 5669 5665 5660 5656 5652 5648 5644 5641 5637 5634 5631 5628 5625 5622 5619 5615 5614 5613 5609 5605 5602 5600 5597 5594 5592 5591 5589 5586 5584 5581 5579 5579 5578 5576 5575 5574 5573 5572 5572 5572 5572 5574 5577 5579 5581 5585 5590 5594 5597 5600 5606 5609 5612 5617 5625 5630 5631 5633 5638 5643 5646 5647 5651 5655 5660 5666 5671 5673 5678 5684 5690 5695 5698 5701 5706 5710 5712 5715 5722 5729 5733 5736
5695 5691 5687 5682 5677 5673 5669 5664 5660 5655 5651 5647 5644 5641 5638 5634 5631 5628 5625 5622 5620 5616 5613 5611 5609 5605 5602 5599 5597 5594 5591 5590 5587 5585 5584 5581 5579 5578 5577 5576 5574 5573 5572 5571 5571 5571 5571 5572 5574 5576 5578 5582 5586 5589 5591 5595 5600 5604 5609 5615 5621 5625 5629 5631 5634 5638 5642 5646 5651 5655 5659 5663 5668 5673 5678 5681 5686 5693 5696 5699 5702 5706 5708 5711 5719 5726 5729 5732
5694 5689 5685 5681 5677 5673 5669 5664 5659 5655 5650 5647 5644 5641 5638 5634 5630 5627 5625 5623 5620 5617 5614 5611 5608 5605 5602 5598 5596 5594 5591 5589 5587 5585 5583 5581 5580 5578 5577 5575 5574 5572 5571 5570 5570 5570 5570 5571 5572 5573 5575 5579 5581 5582 5586 5592 5597 5602 5607 5612 5615 5619 5625 5629 5631 5636 5641 5646 5650 5655 5658 5661 5666 5673 5679 5681 5686 5691 5695 5697 5699 5703 5705 5708 5715 5722 5726 5728
5693 5689 5685 5681 5677 5673 5668 5664 5659 5653 5649 5646 5644 5641 5637 5634 5631 5627 5625 5623 5620 5618 5614 5611 5608 5605 5602 5599 5596 5594 5591 5589 5587 5585 5583 5581 5580 5579 5577 5575 5573 5572 5571 5570 5570 5570 5570 5570 5572 5572 5573 5575 5577 5579 5585 5591 5596 5600 5604 5609 5613 5618 5623 5626 5629 5634 5640 5644 5647 5652 5656 5660 5666 5673 5678 5682 5687 5690 5693 5696 5698 5701 5704 5706 5711 5719 5723 5726
5692 5688 5684 5680 5676 5672 5668 5663 5658 5653 5649 5646 5643 5640 5637 5634 5631 5628 5625 5623 5621 5618 5615 5612 5608 5605 5602 5599 5596 5593 5591 5590 5588 5585 5583 5581 5580 5579 5578 5575 5573 5572 5572 5571 5570 5570 5570 5570 5571 5571 5572 5574 5576 5580 5585 5591 5595 5599 5603 5608 5614 5619 5623 5626 5628 5632 5638 5642 5645 5650 5657 5661 5666 5672 5677 5682 5686 5689 5692 5694 5696 5699 5702 5704 5708 5716 5721 5724
5690 5686 5682 5678 5674 5670 5667 5663 5658 5654 5650 5646 5643 5639 5636 5633 5630 5627 5625 5624 5621 5618 5614 5612 5609 5605 5602 5599 5596 5594 5592 5590 5588 5585 5584 5582 5580 5579 5578 5576 5574 5573 5572 5571 5571 5570 5570 5570 5570 5570 5571 5573 5574 5578 5583 5589 5595 5600 5604 5610 5615 5618 5622 5626 5629 5634 5639 5642 5644 5648 5655 5662 5668 5673 5677 5681 5685 5688 5690 5692 5694 5698 5700 5702 5706 5714 5719 5721
5690 5685 5681 5677 5673 5670 5666 5662 5658 5653 5649 5645 5641 5637 5634 5632 5630 5627 5625 5624 5621 5617 5614 5612 5609 5606 5603 5600 5597 5595 5592 5590 5588 5586 5584 5582 5581 5580 5578 5577 5575 5574 5573 5572 5571 5571 5571 5570 5570 5570 5571 5572 5574 5577 5581 5587 5593 5597 5602 5608 5613 5617 5623 5628 5633 5636 5639 5644 5647 5649 5654 5661 5668 5673 5677 5680 5685 5687 5688 5691 5694 5697 5699 5701 5704 5711 5715 5719
5688 5684 5680 5676 5672 5669 5665 5661 5656 5652 5648 5644 5640 5637 5634 5632 5630 5627 5625 5623 5620 5617 5615 5612 5609 5607 5604 5601 5599 5596 5593 5591 5589 5587 5585 5583 5582 5581 5579 5578 5577 5575 5574 5573 5573 5573 5572 5571 5571 5571 5571 5572 5574 5577 5580 5584 5589 5594 5601 5607 5612 5617 5622 5626 5632 5634 5636 5643 5649 5651 5653 5658 5665 5671 5675 5678 5683 5686 5688 5690 5693 5696 5698 5699 5702 5707 5712 5716
5687 5683 5679 5676 5673 5669 5664 5660 5656 5653 5649 5645 5641 5638 5635 5632 5630 5627 5625 5623 5620 5617 5615 5613 5610 5608 5606 5603 5600 5597 5595 5593 5591 5589 5587 5585 5583 5582 5580 5579 5578 5576 5575 5574 5574 5574 5573 5572 5572 5571 5572 5574 5576 5579 5583 5586 5589 5594 5600 5606 5613 5619 5621 5623 5628 5631 5633 5640 5646 5649 5652 5655 5660 5666 5672 5675 5679 5683 5686 5688 5691 5693 5695 5697 5700 5704 5709 5713
5685 5682 5678 5675 5672 5668 5664 5661 5657 5654 5650 5646 5641 5638 5635 5633 5630 5628 5625 5622 5620 5618 5616 5613 5610 5608 5607 5604 5601 5598 5596 5594 5593 5591 5589 5588 5585 5583 5582 5580 5579 5577 5576 5575 5574 5574 5574 5573 5573 5573 5574 5577 5579 5583 5588 5591 5594 5598 5603 5608 5614 5619 5621 5623 5626 5628 5632 5638 5643 5647 5652 5655 5657 5662 5669 5673 5675 5679 5682 5684 5687 5690 5692 5695 5698 5702 5707 5711
5683 5681 5677 5673 5670 5666 5663 5659 5656 5653 5649 5645 5642 5639 5636 5633 5630 5627 5624 5621 5619 5618 5616 5613 5611 5609 5607 5605 5603 5600 5597 5595 5594 5593 5591 5589 5587 5585 5584 5582 5580 5578 5577 5576 5575 5574 5574 5574 5574 5575 5577 5579 5582 5585 5589 5593 5598 5603 5607 5610 5615 5618 5622 5624 5623 5624 5630 5638 5642 5646 5652 5654 5655 5658 5665 5669 5671 5674 5677 5680 5684 5687 5690 5692 5695 5700 5704 5708
5682 5679 5676 5672 5668 5665 5662 5658 5654 5651 5648 5644 5641 5639 5635 5632 5628 5625 5623 5621 5619 5617 5616 5614 5612 5609 5607 5605 5603 5601 5598 5596 5595 5594 5592 5591 5589 5587 5585 5583 5582 5580 5579 5577 5577 5576 5576 5576 5577 5580 5582 5584 5586 5588 5591 5594 5598 5604 5609 5611 5615 5618 5622 5624 5623 5624 5628 5634 5639 5644 5648 5651 5652 5656 5661 5665 5668 5672 5674 5677 5682 5685 5687 5690 5693 5697 5701 5705
5680 5676 5673 5671 5667 5663 5660 5658 5654 5650 5647 5644 5641 5638 5634 5631 5628 5625 5623 5622 5620 5618 5616 5615 5611 5609 5607 5606 5604 5601 5599 5598 5597 5596 5594 5592 5591 5589 5587 5585 5584 5584 5582 5580 5580 5579 5579 5579 5581 5585 5587 5589 5590 5593 5595 5597 5599 5603 5607 5611 5615 5619 5621 5623 5625 5627 5629 5632 5636 5642 5647 5649 5651 5654 5658 5662 5666 5670 5673 5676 5679 5682 5684 5687 5691 5694 5698 5702
5678 5675 5671 5668 5666 5662 5658 5656 5654 5650 5647 5644 5641 5637 5633 5630 5629 5626 5623 5621 5620 5618 5616 5613 5611 5609 5608 5606 5604 5602 5600 5599 5598 5597 5596 5594 5593 5591 5590 5588 5587 5586 5585 5584 5582 5583 5583 5584 5586 5589 5591 5592 5594 5597 5599 5601 5602 5603 5606 5610 5614 5618 5621 5623 5625 5626 5627 5630 5635 5640 5646 5649 5650 5652 5656 5659 5663 5667 5671 5673 5676 5679 5682 5684 5687 5691 5695 5699
5677 5674 5671 5668 5665 5662 5658 5655 5653 5650 5647 5644 5640 5636 5633 5630 5629 5627 5624 5620 5618 5617 5615 5613 5611 5610 5609 5607 5606 5604 5601 5600 5599 5599 5597 5596 5595 5593 5592 5591 5589 5588 5588 5587 5586 5586 5587 5588 5589 5591 5593 5595 5597 5599 5601 5603 5604 5605 5606 5609 5613 5617 5620 5622 5623 5624 5626 5629 5633 5637 5642 5646 5648 5651 5654 5658 5662 5665 5668 5671 5674 5676 5679 5682 5685 5689 5693 5697
5674 5672 5669 5667 5664 5662 5658 5654 5652 5649 5646 5643 5640 5636 5633 5630 5628 5627 5625 5622 5619 5617 5615 5613 5611 5610 5609 5608 5606 5605 5603 5601 5600 5600 5599 5598 5597 5595 5594 5593 5591 5591 5591 5591 5591 5591 5591 5592 5593 5594 5596 5598 5599 5601 5603 5605 5605 5606 5607 5610 5613 5616 5621 5623 5624 5625 5627 5629 5631 5634 5639 5643 5646 5649 5653 5657 5661 5664 5667 5669 5671 5673 5676 5680 5684 5689 5692 5696